[Iaude] MPEC C167: 2024 CQ4 [a=1.86,e=0.46,i=1.1,H=25.2]
    mpec at cfa.harvard.edu 
    mpec at cfa.harvard.edu
       
    Wed Feb 14 09:45:51 EST 2024
    
    
  
M.P.E.C. 2024-C167                            Issued 2024 February 14, 14:43 UT
     The Minor Planet Electronic Circulars contain information on unusual
         minor planets, routine data on comets and natural satellites,
         and occasional editorial announcements.  They are published
    on behalf of Division F of the International Astronomical Union by the
          Minor Planet Center, Smithsonian Astrophysical Observatory,
                          Cambridge, MA 02138, U.S.A.
			  
             Prepared using the Tamkin Foundation Computer Network
                              MPC at CFA.HARVARD.EDU
            URL https://www.minorplanetcenter.net/    ISSN 1523-6714
                                    2024 CQ4                                    
Observations:
     K24C04Q* C2024 02 13.24974307 48 12.237+29 34 18.77         20.43wXEC167F52
     K24C04Q  C2024 02 13.26203907 48 24.221+29 33 54.61         20.90wXEC167F52
     K24C04Q  C2024 02 13.27432307 48 36.124+29 33 29.94         20.62wXEC167F52
     K24C04Q  C2024 02 13.38353907 50 20.698+29 29 33.26         19.78GVEC167F52
     K24C04Q  C2024 02 13.38418607 50 21.269+29 29 31.96         20.55GVEC167F52
     K24C04Q KC2024 02 13.82991007 57 50.29 +29 11 00.3          20.7 GVEC167L01
     K24C04Q KC2024 02 13.83139307 57 51.68 +29 10 57.1          20.7 GVEC167L01
     K24C04Q KC2024 02 13.83287607 57 53.06 +29 10 53.7          20.6 GVEC167L01
     K24C04Q KC2024 02 13.83460507 57 54.68 +29 10 49.5          20.9 GVEC167L01
     K24C04Q 1C2024 02 13.86757 07 58 25.52 +29 09 19.0          21.1 VXEC167033
     K24C04Q 1C2024 02 13.86861 07 58 26.55 +29 09 16.4          20.7 VXEC167033
     K24C04Q 1C2024 02 13.86965 07 58 27.48 +29 09 13.9          20.6 VXEC167033
     K24C04Q KB2024 02 13.90160107 58 58.90 +29 08 10.7          20.2 GXEC167I93
     K24C04Q KB2024 02 13.90444507 59 01.52 +29 08 04.3          20.0 GXEC167I93
     K24C04Q KB2024 02 13.90728007 59 04.16 +29 07 57.4          20.3 GXEC167I93
     K24C04Q KB2024 02 13.94625307 59 40.29 +29 06 23.9          19.7 GXEC167958
     K24C04Q KB2024 02 13.95087307 59 44.63 +29 06 12.6          19.6 GXEC167958
     K24C04Q KB2024 02 13.95549107 59 48.83 +29 06 01.2          19.6 GXEC167958
     K24C04Q KB2024 02 14.14610 08 02 56.29 +28 58 15.6          19.8 GVEC167734
     K24C04Q KB2024 02 14.15512 08 03 04.34 +28 57 54.6          20.2 GVEC167734
     K24C04Q KC2024 02 14.16007008 03 10.43 +28 57 48.2          20.4 GXEC167858
     K24C04Q KB2024 02 14.16414 08 03 12.58 +28 57 32.8          19.7 GVEC167734
     K24C04Q KC2024 02 14.16530108 03 15.16 +28 57 35.8          20.0 GXEC167858
     K24C04Q KC2024 02 14.17112 08 03 18.83 +28 57 16.5          20.2 GVEC167H36
     K24C04Q KC2024 02 14.17129908 03 20.62 +28 57 21.3          20.4 GXEC167858
     K24C04Q KB2024 02 14.17297 08 03 20.56 +28 57 11.9          19.8 GVEC167734
     K24C04Q KC2024 02 14.18761 08 03 33.76 +28 56 35.6          20.4 GVEC167H36
Observer details:
033 Karl Schwarzschild Observatory, Tautenburg.  Observers S. Melnikov, C.
    Hogner, F. Ludwig, M. Hartmann, B. Stecklum.  Measurer B. Stecklum.
    1.34-m f/3 Schmidt + CCD.
734 Farpoint Observatory, Eskridge.  Observers D. Cromer, G. Hug, D. Goodin,
    R. Valentine.  Measurer D. Cromer.  0.69-m f/3.54 reflector + CMO.
858 Tebbutt Observatory, Edgewood.  Observer F. B. Zoltowski.  0.51-m f/8.1
    Schmidt-Cassegrain + CCD.
958 Observatoire de Dax.  Observer P. Dupouy.  0.50-m f/4.5 Reflector + CMO.
F52 Pan-STARRS 2, Haleakala.  Observers J. Herman, T. Lowe, P. Minguez, A.
    Schultz, I. Smith.  Measurers K. Chambers, T. de Boer, J. Fairlamb, H.
    Gao, M. Huber, C.-C. Lin, E. Magnier, Y. Ramanjooloo, R. Wainscoat, R.
    Weryk.  1.8-m Ritchey-Chretien + CCD.
H36 Sandlot Observatory, Scranton.  Observer G. Hug.  .56 meter Reflector +
    CCD.
I93 St Pardon de Conques.  Observer F. Losse.  0.40-m f/3.7 reflector + CCD.
L01 Visnjan Observatory, Tican.  Observer K. Korlevic.  1.0-m f/2.9 reflector
    + CCD.
Orbital elements:
2024 CQ4                                                 Earth MOID = 0.0094 AU
Epoch 2023 Sept. 13.0 TT = JDT 2460200.5                Veres                   
M 310.45183              (2000.0)            P               Q                  
n   0.38968456     Peri.  355.52457     -0.36726116     -0.92995793             
a   1.8563531      Node   116.02144     +0.85396110     -0.34448125             
e   0.4645203      Incl.    1.09978     +0.36860504     -0.12849482             
P   2.53           H   25.23          G   0.15           U   8                  
Residuals in seconds of arc
240213 F52  0.2-  0.2+    240213 033  0.2-  0.1+    240214 734  0.7+  0.7-
240213 F52  0.1-  0.2+    240213 033  0.5+  0.0     240214 734  1.0-  0.0
240213 F52  0.3-  0.1+    240213 033  0.0   0.1-    240214 858  0.5-  0.0
240213 F52  0.4+  0.0     240213 I93  0.1-  0.2-    240214 734  0.1+  0.0
240213 F52  0.2-  0.2+    240213 I93  0.4-  0.1+    240214 858  0.5-  0.0
240213 L01  0.0   0.2-    240213 I93  0.2-  0.0     240214 H36  0.1-  0.5+
240213 L01  0.0   0.0     240213 958  0.5-  0.8-    240214 858  0.0   0.2-
240213 L01  0.1-  0.0     240213 958  0.5+  0.6-    240214 734  0.2+  0.8+
240213 L01  0.1-  0.2-    240213 958  0.3-  0.5-    240214 H36  0.7+  0.4+
Ephemeris:
2024 CQ4                 a,e,i = 1.86, 0.46, 1                   q = 0.9940
Date    TT    R. A. (2000) Decl.     Delta      r    Elong.  Phase     V
2024 01 15    01 41 28.7 +08 59 24   0.1080  0.9948    92.8    81.0    23.2
...
2024 01 30    03 25 46.7 +21 45 59   0.06403 1.0038   105.3    71.2    21.8
...
2024 02 07    05 43 28.3 +30 11 26   0.05411 1.0209   128.7    48.9    20.8
...
2024 02 13    07 43 46.3 +29 43 17   0.06020 1.0388   148.2    30.1    20.5
2024 02 14    08 00 32.0 +29 04 50   0.06233 1.0422   150.8    27.6    20.5
2024 02 15    08 16 00.4 +28 21 32   0.06472 1.0457   153.1    25.3    20.5
...
2024 02 21    09 24 20.5 +23 36 46   0.08359 1.0688   162.7    16.0    20.9
...
2024 02 29    10 12 29.5 +18 35 48   0.1170  1.1049   166.9    11.8    21.5
...
2024 03 15    10 51 33.2 +13 12 10   0.1971  1.1849   163.7    13.6    22.9
M. P. C. Staff               (C) Copyright 2024 MPC           M.P.E.C. 2024-C167
    
    
More information about the Iaude
mailing list